Location: Ammerl�gen
(47.2167°N, 9.6000°E)
Time: 09:10:03
(UTC+00:00)

Iridium 4 Rocket - Pass Details

Date: 04 August 2021
Orbit: 584 x 904 km, 86.9° (Epoch: 18 September)

Event Time Altitude Azimuth Distance (km) Brightness Sun altitude
Rises 00:30:36 0° 359° (N) 3,458 8.1 -24.0°
Reaches altitude 10° 00:33:02 10° 3° (N) 2,545 7.2 -23.9°
Maximum altitude 00:38:49 63° 84° (E) 1,004 4.1 -23.6°
Enters shadow 00:40:59 38° 149° (SSE) 1,341 4.4 -23.5°
